Location: Alphen
(52.1351°N, 4.6549°E)
Time: 02:09:46
(UTC+00:00)

Cosmos 1980 - Pass Details

Date: 27 January 2021
Orbit: 841 x 846 km, 71.0° (Epoch: 26 February)

Event Time Altitude Azimuth Distance (km) Brightness Sun altitude
Exits shadow 05:59:12 18° 267° (W) 1,942 5.0 -13.7°
Maximum altitude 06:02:28 31° 318° (NW) 1,431 4.5 -13.2°
Drops below altitude 10° 06:07:30 10° 20° (NNE) 2,470 6.2 -12.4°
Sets 06:10:14 0° 31° (NNE) 3,408 7.1 -12.0°
